TimePST,TemperatureF,Dew PointF,Humidity,Sea Level PressureIn,VisibilityMPH,Wind Direction,Wind SpeedMPH,Gust SpeedMPH,PrecipitationIn,Events,Conditions,WindDirDegrees,DateUTC
12:56 AM,39.9,32.0,73,29.98,10.0,West,19.6,-,N/A,,Scattered Clouds,260,2012-12-27 08:56:00
1:56 AM,39.0,32.0,76,29.99,10.0,WSW,19.6,-,N/A,,Clear,250,2012-12-27 09:56:00
2:56 AM,37.9,30.9,76,29.96,10.0,West,21.9,-,N/A,,Clear,270,2012-12-27 10:56:00
3:56 AM,39.0,30.9,73,29.97,10.0,West,17.3,25.3,N/A,,Clear,280,2012-12-27 11:56:00
4:56 AM,39.9,30.0,68,29.99,10.0,WNW,16.1,-,N/A,,Clear,300,2012-12-27 12:56:00
5:56 AM,39.0,30.0,70,30.01,10.0,WNW,13.8,-,N/A,,Clear,290,2012-12-27 13:56:00
6:56 AM,39.9,28.9,65,30.04,10.0,NW,8.1,-,N/A,,Clear,320,2012-12-27 14:56:00
7:56 AM,41.0,28.0,60,30.04,10.0,WNW,17.3,-,N/A,,Clear,290,2012-12-27 15:56:00
8:56 AM,45.0,28.0,52,30.04,10.0,West,17.3,24.2,N/A,,Clear,280,2012-12-27 16:56:00
9:56 AM,48.0,28.9,48,30.05,10.0,WNW,12.7,-,N/A,,Clear,290,2012-12-27 17:56:00
10:10 AM,48.2,26.6,43,30.03,10.0,WNW,12.7,-,N/A,,Clear,300,2012-12-27 18:10:00
10:56 AM,50.0,26.1,39,30.04,10.0,West,19.6,-,N/A,,Clear,280,2012-12-27 18:56:00
11:56 AM,50.0,27.0,41,30.02,10.0,West,21.9,-,N/A,,Scattered Clouds,270,2012-12-27 19:56:00
12:56 PM,50.0,26.1,39,30.01,10.0,West,19.6,26.5,N/A,,Partly Cloudy,280,2012-12-27 20:56:00
1:56 PM,50.0,26.1,39,30.01,10.0,West,15.0,-,N/A,,Scattered Clouds,280,2012-12-27 21:56:00
2:56 PM,50.0,26.1,39,30.02,10.0,West,18.4,-,N/A,,Mostly Cloudy,280,2012-12-27 22:56:00
3:56 PM,46.0,28.0,50,30.04,10.0,West,17.3,-,N/A,,Clear,280,2012-12-27 23:56:00
4:56 PM,42.1,28.0,58,30.06,10.0,West,15.0,-,N/A,,Clear,280,2012-12-28 00:56:00
5:56 PM,37.9,26.1,62,30.09,10.0,West,10.4,-,N/A,,Clear,260,2012-12-28 01:56:00
6:56 PM,37.0,24.1,59,30.10,10.0,WNW,9.2,-,N/A,,Clear,300,2012-12-28 02:56:00
7:56 PM,37.0,26.1,65,30.12,10.0,West,6.9,-,N/A,,Clear,280,2012-12-28 03:56:00
8:56 PM,34.0,25.0,70,30.13,10.0,West,4.6,-,N/A,,Clear,280,2012-12-28 04:56:00
9:56 PM,32.0,23.0,69,30.16,10.0,Calm,Calm,-,N/A,,Clear,0,2012-12-28 05:56:00
10:56 PM,30.0,21.9,72,30.17,10.0,Calm,Calm,-,N/A,,Clear,0,2012-12-28 06:56:00
11:56 PM,27.0,19.9,75,30.19,10.0,WSW,4.6,-,N/A,,Clear,240,2012-12-28 07:56:00